Location: Le Moustier
(44.1000°N, 6.5167°E)
Time: 23:05:39
(UTC+00:00)

BREEZE-M DEB (TANK) - Pass Details

Date: 13 December 2025
Orbit: 276 x 13311 km, 49.5° (Epoch: 19 January)

Event Time Altitude Azimuth Distance (km) Brightness Sun altitude
Rises 17:45:59 0° 295° (WNW) 2,516 7.0 -19.0°
Reaches altitude 10° 17:47:20 10° 298° (WNW) 1,916 6.2 -19.2°
Maximum altitude 17:51:13 68° 23° (NNE) 1,115 4.1 -19.9°
Enters shadow 17:58:00 24° 101° (ESE) 3,594 6.4 -21.1°
